2022-047AF (52423 NORAD) Tracking and Keplerian Element Data

This shows tracking and keplerian element data for the satellite.

Feedback or suggestion? Click here.




ElementValue
Catalog52423
Name2022-047AF
Epoch Orbit1203
Epoch Day192.84743294
Epoch Year2022
RAAN277.1009
Inclination97.4497
Eccentricity0.0009461
Argument of Perigee109.3594
Mean Anonmoly250.866
Mean Motion15.12762982
Decay Rate6.095E-05
L11 52423U 22047AF 22192.84743294 .00006095 00000+0 35081-3 0 9997
L22 52423 97.4497 277.1009 0009461 109.3594 250.8660 15.12762982 12031

Live tracking and technical data element details for 2022-047AF (NORAD 52423). 2022-047AF can be tracked NOW for your location showing map with azimuth and elevation plus other details from your city location.

Track the satellite on the map from your city or location and see movement details for azimuth, elevation, latitude, longitude, range, height, and movement on the map or in text.







IsCatalogInMostPopularTable: catalog: 52423, numindb: 4
Update: records affected: 1



GetName: 52423 2022-047AF

Hit Count: updated at: Sat, 13 Aug 2022 23:45:09 GMT